Time,TemperatureF,DewpointF,PressureIn,WindDirection,WindDirectionDegrees,WindSpeedMPH,WindSpeedGustMPH,Humidity,HourlyPrecipIn,Conditions,Clouds,dailyrainin,SoftwareType,DateUTC
2013-04-04 00:23:00,23.0,-99.9,-100.00,WSW,247,0.0,0.0,-999,-99.99,,,-99.99,,2013-04-04 08:23:00,
2013-04-04 03:23:00,18.0,-99.9,-100.00,WSW,247,0.0,0.0,-999,-99.99,,,-99.99,,2013-04-04 11:23:00,
2013-04-04 04:23:00,16.0,-99.9,-100.00,WSW,247,0.0,0.0,-999,-99.99,,,-99.99,,2013-04-04 12:23:00,
2013-04-04 05:22:00,15.0,-99.9,-100.00,WSW,247,0.0,0.0,-999,-99.99,,,-99.99,,2013-04-04 13:22:00,
2013-04-04 07:24:00,13.0,-99.9,-100.00,WSW,247,0.0,0.0,-999,-99.99,,,-99.99,,2013-04-04 15:24:00,
2013-04-04 09:23:00,17.0,-99.9,-100.00,WSW,247,0.0,0.0,-999,-99.99,,,-99.99,,2013-04-04 17:23:00,
2013-04-04 09:34:00,17.0,-99.9,-100.00,WSW,247,0.0,0.0,-999,-99.99,,,-99.99,,2013-04-04 17:34:00,
2013-04-04 10:23:00,27.0,-99.9,-100.00,NNE,26,0.0,4.0,-999,-99.99,,,-99.99,,2013-04-04 18:23:00,
2013-04-04 10:33:00,27.0,-99.9,-100.00,NNE,26,0.0,4.0,-999,-99.99,,,-99.99,,2013-04-04 18:33:00,
2013-04-04 10:43:00,27.0,-99.9,-100.00,NNE,26,0.0,4.0,-999,-99.99,,,-99.99,,2013-04-04 18:43:00,
2013-04-04 10:53:00,27.0,-99.9,-100.00,NNE,26,0.0,4.0,-999,-99.99,,,-99.99,,2013-04-04 18:53:00,
2013-04-04 12:23:00,35.0,-99.9,-100.00,NNE,16,3.0,8.0,-999,-99.99,,,-99.99,,2013-04-04 20:23:00,
2013-04-04 12:33:00,35.0,-99.9,-100.00,NNE,16,3.0,8.0,-999,-99.99,,,-99.99,,2013-04-04 20:33:00,
2013-04-04 12:42:00,35.0,-99.9,-100.00,NNE,16,3.0,8.0,-999,-99.99,,,-99.99,,2013-04-04 20:42:00,
2013-04-04 12:53:00,35.0,-99.9,-100.00,NNE,16,3.0,8.0,-999,-99.99,,,-99.99,,2013-04-04 20:53:00,
2013-04-04 13:22:00,37.0,-99.9,-100.00,North,2,0.0,5.0,-999,-99.99,,,-99.99,,2013-04-04 21:22:00,
2013-04-04 13:33:00,37.0,-99.9,-100.00,North,2,0.0,5.0,-999,-99.99,,,-99.99,,2013-04-04 21:33:00,
2013-04-04 13:43:00,37.0,-99.9,-100.00,North,2,0.0,5.0,-999,-99.99,,,-99.99,,2013-04-04 21:43:00,
2013-04-04 13:53:00,37.0,-99.9,-100.00,North,2,0.0,5.0,-999,-99.99,,,-99.99,,2013-04-04 21:53:00,
2013-04-04 14:23:00,39.0,-99.9,-100.00,North,0,0.0,6.0,-999,-99.99,,,-99.99,,2013-04-04 22:23:00,
2013-04-04 14:34:00,39.0,-99.9,-100.00,North,0,0.0,6.0,-999,-99.99,,,-99.99,,2013-04-04 22:34:00,
2013-04-04 14:43:00,39.0,-99.9,-100.00,North,0,0.0,6.0,-999,-99.99,,,-99.99,,2013-04-04 22:43:00,
2013-04-04 14:53:00,39.0,-99.9,-100.00,North,0,0.0,6.0,-999,-99.99,,,-99.99,,2013-04-04 22:53:00,
2013-04-04 15:22:00,40.0,-99.9,-100.00,NW,326,0.0,3.0,-999,-99.99,,,-99.99,,2013-04-04 23:22:00,
2013-04-04 15:32:00,40.0,-99.9,-100.00,NW,326,0.0,3.0,-999,-99.99,,,-99.99,,2013-04-04 23:32:00,
2013-04-04 15:43:00,40.0,-99.9,-100.00,NW,326,0.0,3.0,-999,-99.99,,,-99.99,,2013-04-04 23:43:00,
2013-04-04 15:53:00,40.0,-99.9,-100.00,NW,326,0.0,3.0,-999,-99.99,,,-99.99,,2013-04-04 23:53:00,
2013-04-04 16:22:00,40.0,-99.9,-100.00,North,5,5.0,9.0,-999,-99.99,,,-99.99,,2013-04-05 00:22:00,
2013-04-04 16:33:00,40.0,-99.9,-100.00,North,5,5.0,9.0,-999,-99.99,,,-99.99,,2013-04-05 00:33:00,
2013-04-04 16:43:00,40.0,-99.9,-100.00,North,5,5.0,9.0,-999,-99.99,,,-99.99,,2013-04-05 00:43:00,
2013-04-04 16:52:00,40.0,-99.9,-100.00,North,5,5.0,9.0,-999,-99.99,,,-99.99,,2013-04-05 00:52:00,
2013-04-04 16:54:00,40.0,-99.9,-100.00,NW,314,6.0,8.0,-999,-99.99,,,-99.99,,2013-04-05 00:54:00,
2013-04-04 17:23:00,40.0,-99.9,-100.00,NW,314,6.0,8.0,-999,-99.99,,,-99.99,,2013-04-05 01:23:00,
2013-04-04 17:33:00,40.0,-99.9,-100.00,NW,314,6.0,8.0,-999,-99.99,,,-99.99,,2013-04-05 01:33:00,
2013-04-04 17:43:00,40.0,-99.9,-100.00,NW,314,6.0,8.0,-999,-99.99,,,-99.99,,2013-04-05 01:43:00,
2013-04-04 18:22:00,40.0,-99.9,-100.00,West,266,4.0,5.0,-999,-99.99,,,-99.99,,2013-04-05 02:22:00,
2013-04-04 18:32:00,40.0,-99.9,-100.00,West,266,4.0,5.0,-999,-99.99,,,-99.99,,2013-04-05 02:32:00,
2013-04-04 18:42:00,40.0,-99.9,-100.00,West,266,4.0,5.0,-999,-99.99,,,-99.99,,2013-04-05 02:42:00,
2013-04-04 18:52:00,40.0,-99.9,-100.00,West,266,4.0,5.0,-999,-99.99,,,-99.99,,2013-04-05 02:52:00,
2013-04-04 18:54:00,40.0,-99.9,-100.00,North,0,4.0,9.0,-999,-99.99,,,-99.99,,2013-04-05 02:54:00,
2013-04-04 19:22:00,40.0,-99.9,-100.00,North,0,4.0,9.0,-999,-99.99,,,-99.99,,2013-04-05 03:22:00,
2013-04-04 19:33:00,40.0,-99.9,-100.00,North,0,4.0,9.0,-999,-99.99,,,-99.99,,2013-04-05 03:33:00,
2013-04-04 19:43:00,40.0,-99.9,-100.00,North,0,4.0,9.0,-999,-99.99,,,-99.99,,2013-04-05 03:43:00,
2013-04-04 20:23:00,37.0,-99.9,-100.00,NNW,328,0.0,5.0,-999,-99.99,,,-99.99,,2013-04-05 04:23:00,
2013-04-04 20:33:00,37.0,-99.9,-100.00,NNW,328,0.0,5.0,-999,-99.99,,,-99.99,,2013-04-05 04:33:00,
2013-04-04 20:43:00,37.0,-99.9,-100.00,NNW,328,0.0,5.0,-999,-99.99,,,-99.99,,2013-04-05 04:43:00,
2013-04-04 20:53:00,37.0,-99.9,-100.00,NNW,328,0.0,5.0,-999,-99.99,,,-99.99,,2013-04-05 04:53:00,
2013-04-04 21:22:00,31.0,-99.9,-100.00,NNE,19,0.0,0.0,-999,-99.99,,,-99.99,,2013-04-05 05:22:00,
2013-04-04 21:32:00,31.0,-99.9,-100.00,NNE,19,0.0,0.0,-999,-99.99,,,-99.99,,2013-04-05 05:32:00,
2013-04-04 21:42:00,31.0,-99.9,-100.00,NNE,19,0.0,0.0,-999,-99.99,,,-99.99,,2013-04-05 05:42:00,
2013-04-04 21:53:00,31.0,-99.9,-100.00,NNE,19,0.0,0.0,-999,-99.99,,,-99.99,,2013-04-05 05:53:00,
2013-04-04 22:42:00,24.0,-99.9,-100.00,NNE,19,0.0,0.0,-999,-99.99,,,-99.99,,2013-04-05 06:42:00,
2013-04-04 22:52:00,24.0,-99.9,-100.00,NNE,19,0.0,0.0,-999,-99.99,,,-99.99,,2013-04-05 06:52:00,
2013-04-04 23:23:00,20.0,-99.9,-100.00,NNE,19,0.0,0.0,-999,-99.99,,,-99.99,,2013-04-05 07:23:00,